Find Starlink 31385

NORAD ID: 58985 Int'l Des: 2024-031 Owner: SPXS Country: US Constellation: starlink operational
LEOCIRCULAR

現在のビュー

3D地球を読み込み中...

About Starlink 31385

Starlink 31385 (NORAD 58985) is a starlink constellation satellite (v2 mini) launched Feb 15, 2024 by SPXS of US. It operates in LEO, CIRCULAR orbit with a mass of 730.00 kg.

次回通過

Passes for default location (London). Set your location on the main map for personalized predictions.

高度履歴

Loading altitude history...

軌道要素

1 58985U 24031W 26222.22691020 -.00001005 00000-0 -18628-4 0 9998
2 58985 53.1595 298.2973 0000954 72.3938 287.7169 15.34385247140091
Epoch: Aug 10, 2026 • Age: 5 hours

現在のステータス

高度 468.3 km
遠地点 / 近地点 N/A
速度 7.64 km/s
衛星直下点 51.58°N, 108.72°W
打ち上げ日 Feb 15, 2024
運用期間 2.4 years
タイプ internet

技術仕様

分類 Payload
質量 730.00 kg
乾燥質量 700.00 kg
総質量 730.00 kg
長さ 0.30 m
直径 4.10 m
スパン 29.00 m
形状 Box + pan
製造者 SPXS
バスタイプ Starlink V2M
フェーズステータス In Orbit
所有者/国 SPXS/US

Most Searched